Home   Weather   Abu Dhabi   Past weeks
Flag for United Arab Emirates

Past Weather in Abu Dhabi, Abu Dhabi, United Arab Emirates — Yesterday and Last 2 Weeks

Now
84 °F

Sunny.


Feels Like: 87 °F
Forecast: 94 / 79 °F
Wind: 15 mph from Southeast

Location: Abu Dhabi Bateen Airport

Current Time: May 20, 2019 at 8:45:31 am

Latest Report: May 20, 2019 at 8:00 am


Visibility: 10 mi

Pressure: 29.77 "Hg

Humidity: 58%

Dew Point: 68 °F

Location of Abu DhabiLocation

Past Weather in Abu Dhabi — Graph

°F

Abu Dhabi Temperature Yesterday

Maximum temperature yesterday: 99 °F (at 3:00 pm)
Minimum temperature yesterday: 84 °F (at 8:00 pm)
Average temperature yesterday: 92 °F

High & Low Weather Summary for the Past Weeks

 TemperatureHumidityPressure
High104 °F (May 5, 2:00 pm)94% (May 9, 11:00 pm)29.92 "Hg (May 9, 11:00 pm)
Low77 °F (May 9, 5:00 am)12% (May 8, 1:00 pm)29.62 "Hg (May 15, 5:00 pm)
Average89 °F45%29.73 "Hg
* Reported May 5 7:00 am — May 20 7:00 am, Abu Dhabi. Weather by CustomWeather, © 2019

Note: Actual official high and low records may vary slightly from our data, if they occured in-between our weather recording intervals... More about our weather records

Advertising

Abu Dhabi Weather History for the Previous 24 Hours

Scroll right to see more
 ConditionsComfort  
Time TempWeatherWind HumidityBarometerVisibility
7:00 am
Mon, May 20
82 °FSunny.16 mph62%29.77 "Hg10 mi
6:00 am82 °FSunny.16 mph62%29.74 "Hg10 mi
5:00 am81 °FClear.16 mph66%29.71 "Hg10 mi
4:00 am82 °FClear.20 mph62%29.71 "Hg10 mi
3:00 am82 °FClear.N/A58%29.71 "Hg10 mi
2:00 am84 °FClear.15 mph55%29.71 "Hg10 mi
1:00 am86 °FClear.17 mph49%29.71 "Hg10 mi
12:00 am86 °FClear.15 mph52%29.74 "Hg10 mi
11:00 pm
Sun, May 19
86 °FClear.16 mph52%29.74 "Hg6 mi
10:00 pm84 °FClear.13 mph58%29.71 "Hg6 mi
9:00 pm84 °FClear.13 mph58%29.71 "Hg6 mi
8:00 pm84 °FThunderstorms. Passing clouds.12 mph58%29.71 "Hg6 mi
7:00 pm88 °FPassing clouds.16 mph46%29.71 "Hg5 mi
6:00 pm93 °FThunderstorms. Scattered clouds.12 mph41%29.68 "Hg6 mi
5:09 pm99 °FThunderstorms. Passing clouds.12 mph24%29.62 "Hg6 mi
5:00 pm99 °FPassing clouds.10 mph24%29.62 "Hg5 mi
4:00 pm99 °FPassing clouds.12 mph25%29.68 "Hg3 mi
3:40 pm97 °FDuststorm.13 mph27%29.68 "Hg2 mi
3:04 pm97 °FLow level haze.20 mph28%29.68 "Hg1 mi
3:00 pm99 °FClear.13 mph27%29.68 "Hg5 mi
2:00 pm95 °FPassing clouds.13 mph32%29.71 "Hg3 mi
1:00 pm97 °FPassing clouds.12 mph32%29.74 "Hg5 mi
12:00 pm95 °FPassing clouds.9 mph44%29.80 "Hg3 mi
11:00 am91 °FLight rain. Scattered clouds.8 mph46%29.77 "Hg2 mi
10:00 am90 °FPassing clouds.6 mph46%29.80 "Hg1 mi
9:33 am90 °FPassing clouds.8 mph46%29.83 "Hg1 mi
9:00 am91 °FPassing clouds.8 mph41%29.80 "Hg4 mi
8:00 am90 °FDuststorm.14 mph36%29.77 "Hg3 mi
Weather by CustomWeather, © 2019

See weather overview